Time,TemperatureF,DewpointF,PressureIn,WindDirection,WindDirectionDegrees,WindSpeedMPH,WindSpeedGustMPH,Humidity,HourlyPrecipIn,Conditions,Clouds,dailyrainin,SolarRadiationWatts/m^2,SoftwareType,DateUTC
2013-04-19 00:03:00,59.0,53.0,-100.00,SSE,159,8.0,16.0,81,0.00,,,0.00,0.000000,,2013-04-19 04:03:00,
2013-04-19 00:13:00,59.0,53.0,-100.00,SSE,159,8.0,16.0,81,0.00,,,0.00,0.000000,,2013-04-19 04:13:00,
2013-04-19 00:43:00,58.0,53.0,-100.00,SSE,158,8.0,20.0,83,0.00,,,0.00,0.000000,,2013-04-19 04:43:00,
2013-04-19 00:52:00,58.0,53.0,-100.00,SSE,158,8.0,20.0,83,0.00,,,0.00,0.000000,,2013-04-19 04:52:00,
2013-04-19 01:03:00,58.0,53.0,-100.00,SSE,158,8.0,20.0,83,0.00,,,0.00,0.000000,,2013-04-19 05:03:00,
2013-04-19 01:12:00,58.0,53.0,-100.00,SSE,158,8.0,20.0,83,0.00,,,0.00,0.000000,,2013-04-19 05:12:00,
2013-04-19 01:42:00,58.0,56.0,-100.00,SSE,164,8.0,20.0,92,0.00,,,0.00,0.000000,,2013-04-19 05:42:00,
2013-04-19 01:52:00,58.0,56.0,-100.00,SSE,164,8.0,20.0,92,0.00,,,0.00,0.000000,,2013-04-19 05:52:00,
2013-04-19 02:02:00,58.0,56.0,-100.00,SSE,164,8.0,20.0,92,0.00,,,0.00,0.000000,,2013-04-19 06:02:00,
2013-04-19 02:12:00,58.0,56.0,-100.00,SSE,164,8.0,20.0,92,0.00,,,0.00,0.000000,,2013-04-19 06:12:00,
2013-04-19 02:42:00,57.0,57.0,-100.00,SSE,168,8.0,18.0,100,0.00,,,0.00,0.000000,,2013-04-19 06:42:00,
2013-04-19 02:53:00,57.0,57.0,-100.00,SSE,168,8.0,18.0,100,0.00,,,0.00,0.000000,,2013-04-19 06:53:00,
2013-04-19 03:02:00,57.0,57.0,-100.00,SSE,168,8.0,18.0,100,0.00,,,0.00,0.000000,,2013-04-19 07:02:00,
2013-04-19 03:12:00,57.0,57.0,-100.00,SSE,168,8.0,18.0,100,0.00,,,0.00,0.000000,,2013-04-19 07:12:00,
2013-04-19 03:42:00,57.0,57.0,-100.00,SSE,151,8.0,18.0,100,0.00,,,0.00,0.000000,,2013-04-19 07:42:00,
2013-04-19 03:52:00,57.0,57.0,-100.00,SSE,151,8.0,18.0,100,0.00,,,0.00,0.000000,,2013-04-19 07:52:00,
2013-04-19 04:02:00,57.0,57.0,-100.00,SSE,151,8.0,18.0,100,0.00,,,0.00,0.000000,,2013-04-19 08:02:00,
2013-04-19 04:12:00,57.0,57.0,-100.00,SSE,151,8.0,18.0,100,0.00,,,0.00,0.000000,,2013-04-19 08:12:00,
2013-04-19 04:42:00,57.0,57.0,-100.00,SSE,161,8.0,20.0,100,0.00,,,0.00,0.000000,,2013-04-19 08:42:00,
2013-04-19 04:52:00,57.0,57.0,-100.00,SSE,161,8.0,20.0,100,0.00,,,0.00,0.000000,,2013-04-19 08:52:00,
2013-04-19 05:01:00,57.0,57.0,-100.00,SSE,161,8.0,20.0,100,0.00,,,0.00,0.000000,,2013-04-19 09:01:00,
2013-04-19 05:12:00,57.0,57.0,-100.00,SSE,161,8.0,20.0,100,0.00,,,0.00,0.000000,,2013-04-19 09:12:00,
2013-04-19 05:43:00,57.0,57.0,-100.00,SSE,156,7.0,15.0,100,0.00,,,0.00,0.000000,,2013-04-19 09:43:00,
2013-04-19 05:52:00,57.0,57.0,-100.00,SSE,156,7.0,15.0,100,0.00,,,0.00,0.000000,,2013-04-19 09:52:00,
2013-04-19 06:02:00,57.0,57.0,-100.00,SSE,156,7.0,15.0,100,0.00,,,0.00,0.000000,,2013-04-19 10:02:00,
2013-04-19 06:13:00,57.0,57.0,-100.00,SSE,156,7.0,15.0,100,0.00,,,0.00,0.000000,,2013-04-19 10:13:00,
2013-04-19 06:42:00,57.0,57.0,-100.00,SSE,162,7.0,29.0,100,0.00,,,0.00,0.000000,,2013-04-19 10:42:00,
2013-04-19 06:52:00,57.0,57.0,-100.00,SSE,162,7.0,29.0,100,0.00,,,0.00,0.000000,,2013-04-19 10:52:00,
2013-04-19 07:03:00,57.0,57.0,-100.00,SSE,162,7.0,29.0,100,0.00,,,0.00,0.000000,,2013-04-19 11:03:00,
2013-04-19 07:11:00,57.0,57.0,-100.00,SSE,162,7.0,29.0,100,0.00,,,0.00,0.000000,,2013-04-19 11:11:00,
2013-04-19 07:43:00,57.0,57.0,-100.00,SSE,152,7.0,21.0,100,0.00,,,0.00,9.000000,,2013-04-19 11:43:00,
2013-04-19 07:52:00,57.0,57.0,-100.00,SSE,152,7.0,21.0,100,0.00,,,0.00,9.000000,,2013-04-19 11:52:00,
2013-04-19 08:03:00,57.0,57.0,-100.00,SSE,152,7.0,21.0,100,0.00,,,0.00,9.000000,,2013-04-19 12:03:00,
2013-04-19 08:12:00,57.0,57.0,-100.00,SSE,152,7.0,21.0,100,0.00,,,0.00,9.000000,,2013-04-19 12:12:00,
2013-04-19 08:42:00,58.0,58.0,-100.00,SSE,168,8.0,16.0,100,0.00,,,0.00,57.000000,,2013-04-19 12:42:00,
2013-04-19 08:53:00,58.0,58.0,-100.00,SSE,168,8.0,16.0,100,0.00,,,0.00,57.000000,,2013-04-19 12:53:00,
2013-04-19 09:02:00,58.0,58.0,-100.00,SSE,168,8.0,16.0,100,0.00,,,0.00,57.000000,,2013-04-19 13:02:00,
2013-04-19 09:11:00,58.0,58.0,-100.00,SSE,168,8.0,16.0,100,0.00,,,0.00,57.000000,,2013-04-19 13:11:00,
2013-04-19 09:42:00,60.0,59.0,-100.00,SSE,167,9.0,19.0,96,0.00,,,0.00,146.000000,,2013-04-19 13:42:00,
2013-04-19 09:52:00,60.0,59.0,-100.00,SSE,167,9.0,19.0,96,0.00,,,0.00,146.000000,,2013-04-19 13:52:00,
2013-04-19 10:02:00,60.0,59.0,-100.00,SSE,167,9.0,19.0,96,0.00,,,0.00,146.000000,,2013-04-19 14:02:00,
2013-04-19 10:11:00,60.0,59.0,-100.00,SSE,167,9.0,19.0,96,0.00,,,0.00,146.000000,,2013-04-19 14:11:00,
2013-04-19 10:43:00,60.0,59.0,-100.00,SSE,167,9.0,20.0,97,0.00,,,0.00,124.000000,,2013-04-19 14:43:00,
2013-04-19 10:52:00,60.0,59.0,-100.00,SSE,167,9.0,20.0,97,0.00,,,0.00,124.000000,,2013-04-19 14:52:00,
2013-04-19 11:02:00,60.0,59.0,-100.00,SSE,167,9.0,20.0,97,0.00,,,0.00,124.000000,,2013-04-19 15:02:00,
2013-04-19 11:12:00,60.0,59.0,-100.00,SSE,167,9.0,20.0,97,0.00,,,0.00,124.000000,,2013-04-19 15:12:00,
2013-04-19 11:43:00,63.0,61.0,-100.00,South,171,9.0,20.0,93,0.00,,,0.00,169.000000,,2013-04-19 15:43:00,
2013-04-19 11:52:00,63.0,61.0,-100.00,South,171,9.0,20.0,93,0.00,,,0.00,169.000000,,2013-04-19 15:52:00,
2013-04-19 12:03:00,63.0,61.0,-100.00,South,171,9.0,20.0,93,0.00,,,0.00,169.000000,,2013-04-19 16:03:00,
2013-04-19 12:13:00,63.0,61.0,-100.00,South,171,9.0,20.0,93,0.00,,,0.00,169.000000,,2013-04-19 16:13:00,
2013-04-19 12:43:00,66.0,60.0,-100.00,SSW,196,6.0,17.0,81,0.00,,,0.00,269.000000,,2013-04-19 16:43:00,
2013-04-19 12:53:00,66.0,60.0,-100.00,SSW,196,6.0,17.0,81,0.00,,,0.00,269.000000,,2013-04-19 16:53:00,
2013-04-19 13:02:00,66.0,60.0,-100.00,SSW,196,6.0,17.0,81,0.00,,,0.00,269.000000,,2013-04-19 17:02:00,
2013-04-19 13:12:00,66.0,60.0,-100.00,SSW,196,6.0,17.0,81,0.00,,,0.00,269.000000,,2013-04-19 17:12:00,
2013-04-19 13:43:00,66.0,59.0,-100.00,South,174,8.0,17.0,77,0.00,,,0.00,246.000000,,2013-04-19 17:43:00,
2013-04-19 13:52:00,66.0,59.0,-100.00,South,174,8.0,17.0,77,0.00,,,0.00,246.000000,,2013-04-19 17:52:00,
2013-04-19 14:02:00,66.0,59.0,-100.00,South,174,8.0,17.0,77,0.00,,,0.00,246.000000,,2013-04-19 18:02:00,
2013-04-19 14:13:00,66.0,59.0,-100.00,South,174,8.0,17.0,77,0.00,,,0.00,246.000000,,2013-04-19 18:13:00,
2013-04-19 14:43:00,63.0,63.0,-100.00,SSE,165,9.0,21.0,100,0.01,,,0.01,195.000000,,2013-04-19 18:43:00,
2013-04-19 14:52:00,63.0,63.0,-100.00,SSE,165,9.0,21.0,100,0.01,,,0.01,195.000000,,2013-04-19 18:52:00,
2013-04-19 15:02:00,63.0,63.0,-100.00,SSE,165,9.0,21.0,100,0.01,,,0.01,195.000000,,2013-04-19 19:02:00,
2013-04-19 15:11:00,63.0,63.0,-100.00,SSE,165,9.0,21.0,100,0.01,,,0.01,195.000000,,2013-04-19 19:11:00,
2013-04-19 15:42:00,65.0,60.0,-100.00,South,176,9.0,22.0,85,0.00,,,0.01,245.000000,,2013-04-19 19:42:00,
2013-04-19 15:52:00,65.0,60.0,-100.00,South,176,9.0,22.0,85,0.00,,,0.01,245.000000,,2013-04-19 19:52:00,
2013-04-19 16:02:00,65.0,60.0,-100.00,South,176,9.0,22.0,85,0.00,,,0.01,245.000000,,2013-04-19 20:02:00,
2013-04-19 16:11:00,65.0,60.0,-100.00,South,176,9.0,22.0,85,0.00,,,0.01,245.000000,,2013-04-19 20:11:00,
2013-04-19 16:42:00,62.0,61.0,-100.00,South,178,8.0,21.0,96,0.04,,,0.05,106.000000,,2013-04-19 20:42:00,
2013-04-19 16:52:00,62.0,61.0,-100.00,South,178,8.0,21.0,96,0.04,,,0.05,106.000000,,2013-04-19 20:52:00,
2013-04-19 17:01:00,62.0,61.0,-100.00,South,178,8.0,21.0,96,0.04,,,0.05,106.000000,,2013-04-19 21:01:00,
2013-04-19 17:11:00,62.0,61.0,-100.00,South,178,8.0,21.0,96,0.04,,,0.05,106.000000,,2013-04-19 21:11:00,
2013-04-19 17:43:00,51.0,51.0,-100.00,WNW,298,8.0,23.0,100,0.63,,,0.68,34.000000,,2013-04-19 21:43:00,
2013-04-19 17:53:00,51.0,51.0,-100.00,WNW,298,8.0,23.0,100,0.63,,,0.68,34.000000,,2013-04-19 21:53:00,
2013-04-19 18:02:00,51.0,51.0,-100.00,WNW,298,8.0,23.0,100,0.63,,,0.68,34.000000,,2013-04-19 22:02:00,
2013-04-19 18:12:00,51.0,51.0,-100.00,WNW,298,8.0,23.0,100,0.63,,,0.68,34.000000,,2013-04-19 22:12:00,
2013-04-19 18:42:00,50.0,50.0,-100.00,NW,316,7.0,16.0,100,0.09,,,0.77,16.000000,,2013-04-19 22:42:00,
2013-04-19 18:52:00,50.0,50.0,-100.00,NW,316,7.0,16.0,100,0.09,,,0.77,16.000000,,2013-04-19 22:52:00,
2013-04-19 19:03:00,50.0,50.0,-100.00,NW,316,7.0,16.0,100,0.09,,,0.77,16.000000,,2013-04-19 23:03:00,
2013-04-19 19:11:00,50.0,50.0,-100.00,NW,316,7.0,16.0,100,0.09,,,0.77,16.000000,,2013-04-19 23:11:00,
2013-04-19 19:42:00,46.0,46.0,-100.00,NW,306,12.0,21.0,100,0.00,,,0.77,15.000000,,2013-04-19 23:42:00,
2013-04-19 19:53:00,46.0,46.0,-100.00,NW,306,12.0,21.0,100,0.00,,,0.77,15.000000,,2013-04-19 23:53:00,
2013-04-19 20:02:00,46.0,46.0,-100.00,NW,306,12.0,21.0,100,0.00,,,0.77,15.000000,,2013-04-20 00:02:00,
2013-04-19 20:12:00,46.0,46.0,-100.00,NW,306,12.0,21.0,100,0.00,,,0.77,15.000000,,2013-04-20 00:12:00,
2013-04-19 20:42:00,44.0,44.0,-100.00,NW,316,10.0,22.0,99,0.00,,,0.77,3.000000,,2013-04-20 00:42:00,
2013-04-19 20:52:00,44.0,44.0,-100.00,NW,316,10.0,22.0,99,0.00,,,0.77,3.000000,,2013-04-20 00:52:00,
2013-04-19 21:02:00,44.0,44.0,-100.00,NW,316,10.0,22.0,99,0.00,,,0.77,3.000000,,2013-04-20 01:02:00,
2013-04-19 21:11:00,44.0,44.0,-100.00,NW,316,10.0,22.0,99,0.00,,,0.77,3.000000,,2013-04-20 01:11:00,
2013-04-19 21:42:00,42.0,38.0,-100.00,NW,317,10.0,20.0,86,0.00,,,0.77,0.000000,,2013-04-20 01:42:00,
2013-04-19 21:52:00,42.0,38.0,-100.00,NW,317,10.0,20.0,86,0.00,,,0.77,0.000000,,2013-04-20 01:52:00,
2013-04-19 22:02:00,42.0,38.0,-100.00,NW,317,10.0,20.0,86,0.00,,,0.77,0.000000,,2013-04-20 02:02:00,
2013-04-19 22:11:00,42.0,38.0,-100.00,NW,317,10.0,20.0,86,0.00,,,0.77,0.000000,,2013-04-20 02:11:00,
2013-04-19 22:42:00,40.0,36.0,-100.00,NW,318,8.0,21.0,85,0.00,,,0.77,0.000000,,2013-04-20 02:42:00,
2013-04-19 22:52:00,40.0,36.0,-100.00,NW,318,8.0,21.0,85,0.00,,,0.77,0.000000,,2013-04-20 02:52:00,
2013-04-19 23:01:00,40.0,36.0,-100.00,NW,318,8.0,21.0,85,0.00,,,0.77,0.000000,,2013-04-20 03:01:00,
2013-04-19 23:11:00,40.0,36.0,-100.00,NW,318,8.0,21.0,85,0.00,,,0.77,0.000000,,2013-04-20 03:11:00,
2013-04-19 23:43:00,40.0,38.0,-100.00,NW,318,9.0,17.0,94,0.00,,,0.77,0.000000,,2013-04-20 03:43:00,
2013-04-19 23:53:00,40.0,38.0,-100.00,NW,318,9.0,17.0,94,0.00,,,0.77,0.000000,,2013-04-20 03:53:00,